timestamp,wind_dir_avg,wind_spd_avg,wind_spd_max_dir,wind_spd_gust,battery_voltage,lat,long
2022-09-11 00:04:01+00:00,40.0,17.31,43.0,20.33,12.49,47.59359,-54.27349
2022-09-11 00:14:00+00:00,35.0,17.99,38.0,20.69,12.41,47.59359,-54.27349
2022-09-11 00:24:00+00:00,40.0,15.94,47.0,22.78,12.41,47.59359,-54.27349
2022-09-11 00:34:00+00:00,38.0,16.01,48.0,21.44,12.41,47.59359,-54.27349
2022-09-11 00:44:00+00:00,41.0,15.13,50.0,18.46,12.41,47.59359,-54.27349
2022-09-11 00:54:00+00:00,37.0,15.93,39.0,18.78,12.41,47.59359,-54.27349
2022-09-11 01:04:00+00:00,34.0,16.42,41.0,19.19,12.41,47.59359,-54.27349
2022-09-11 01:14:00+00:00,35.0,18.8,37.0,20.64,12.41,47.59359,-54.27349
2022-09-11 01:24:00+00:00,37.0,17.77,38.0,20.91,12.41,47.59359,-54.27349
2022-09-11 01:34:00+00:00,35.0,18.74,43.0,23.22,12.41,47.59359,-54.27349
2022-09-11 01:44:00+00:00,33.0,17.84,38.0,21.18,12.41,47.59359,-54.27349
2022-09-11 01:54:00+00:00,36.0,19.55,38.0,22.66,12.41,47.59359,-54.27349
2022-09-11 02:04:00+00:00,32.0,16.36,36.0,19.27,12.41,47.59359,-54.27349
2022-09-11 02:14:00+00:00,31.0,17.61,30.0,20.73,12.49,47.59359,-54.27349
2022-09-11 02:24:00+00:00,30.0,19.08,35.0,23.48,12.49,47.59359,-54.27349
2022-09-11 02:34:00+00:00,32.0,15.8,36.0,19.04,12.49,47.59359,-54.27349
2022-09-11 02:44:00+00:00,30.0,19.04,37.0,23.71,12.49,47.59359,-54.27349
2022-09-11 02:54:00+00:00,30.0,19.31,41.0,22.33,12.49,47.59359,-54.27349
2022-09-11 03:04:00+00:00,32.0,16.29,32.0,18.44,12.49,47.59359,-54.27349
2022-09-11 03:14:01+00:00,31.0,18.55,34.0,21.43,12.41,47.59359,-54.27349
2022-09-11 03:24:01+00:00,33.0,18.95,36.0,21.98,12.41,47.59359,-54.27349
2022-09-11 03:34:01+00:00,30.0,19.92,39.0,24.52,12.41,47.59359,-54.27349
2022-09-11 03:44:01+00:00,32.0,18.77,39.0,21.88,12.41,47.59359,-54.27349
2022-09-11 03:54:01+00:00,32.0,20.56,34.0,24.66,12.41,47.59359,-54.27349
2022-09-11 04:04:01+00:00,31.0,19.82,37.0,23.76,12.41,47.59359,-54.27349
2022-09-11 04:14:01+00:00,33.0,17.3,34.0,20.9,12.41,47.59359,-54.27349
2022-09-11 04:24:01+00:00,32.0,20.25,38.0,25.13,12.41,47.59359,-54.27349
2022-09-11 04:34:01+00:00,32.0,20.31,32.0,23.03,12.41,47.59359,-54.27349
2022-09-11 04:44:01+00:00,33.0,18.69,44.0,23.32,12.41,47.59359,-54.27349
2022-09-11 04:54:01+00:00,32.0,19.71,37.0,24.58,12.41,47.59359,-54.27349
2022-09-11 05:04:01+00:00,31.0,17.78,40.0,21.33,12.41,47.59359,-54.27349
2022-09-11 07:14:00+00:00,34.0,18.45,37.0,21.88,12.33,47.59359,-54.27349
2022-09-11 07:24:00+00:00,34.0,17.1,39.0,19.61,12.33,47.59359,-54.27349
2022-09-11 07:34:00+00:00,32.0,19.59,42.0,23.94,12.33,47.59359,-54.27349
2022-09-11 07:44:00+00:00,31.0,18.03,33.0,19.78,12.33,47.59359,-54.27349
2022-09-11 07:54:00+00:00,31.0,17.78,42.0,20.73,12.33,47.59359,-54.27349
2022-09-11 08:04:00+00:00,33.0,17.35,42.0,21.12,12.33,47.59359,-54.27349
2022-09-11 08:14:00+00:00,32.0,17.96,38.0,22.16,12.33,47.59359,-54.27349
2022-09-11 08:24:00+00:00,33.0,17.61,40.0,21.23,12.33,47.59359,-54.27349
2022-09-11 08:34:00+00:00,31.0,16.63,33.0,19.47,12.33,47.59359,-54.27349
2022-09-11 08:44:00+00:00,32.0,16.49,36.0,18.35,12.33,47.59359,-54.27349
2022-09-11 08:54:00+00:00,32.0,17.75,32.0,19.75,12.33,47.59359,-54.27349
2022-09-11 09:04:00+00:00,30.0,17.06,34.0,20.65,12.33,47.59359,-54.27349
2022-09-11 09:14:00+00:00,32.0,16.48,32.0,19.06,12.25,47.59359,-54.27349
2022-09-11 09:24:00+00:00,30.0,17.59,30.0,20.94,12.25,47.59359,-54.27349
2022-09-11 09:34:00+00:00,32.0,16.58,33.0,19.09,12.25,47.59359,-54.27349
2022-09-11 09:44:00+00:00,33.0,16.88,35.0,19.04,12.25,47.59359,-54.27349
2022-09-11 09:54:00+00:00,29.0,18.39,24.0,21.05,12.25,47.59359,-54.27349
2022-09-11 10:04:00+00:00,32.0,18.0,38.0,23.66,12.25,47.59359,-54.27349
2022-09-11 10:14:01+00:00,33.0,15.8,30.0,18.23,12.25,47.59359,-54.27349
2022-09-11 10:24:01+00:00,32.0,16.45,35.0,20.05,12.25,47.59359,-54.27349
2022-09-11 10:34:01+00:00,31.0,16.87,35.0,20.76,12.25,47.59359,-54.27349
2022-09-11 10:44:01+00:00,32.0,15.72,26.0,18.46,12.25,47.59359,-54.27349
2022-09-11 10:54:01+00:00,31.0,16.04,39.0,19.82,12.25,47.59359,-54.27349
2022-09-11 11:04:01+00:00,32.0,15.79,33.0,18.8,12.25,47.59359,-54.27349
2022-09-11 11:14:00+00:00,32.0,16.27,30.0,18.03,12.33,47.59359,-54.27349
2022-09-11 11:24:00+00:00,34.0,16.78,33.0,19.3,12.33,47.59359,-54.27349
2022-09-11 11:34:00+00:00,33.0,15.68,34.0,17.59,12.33,47.59359,-54.27349
2022-09-11 11:44:00+00:00,33.0,16.31,33.0,19.16,12.33,47.59359,-54.27349
2022-09-11 11:54:00+00:00,31.0,16.3,27.0,18.65,12.33,47.59359,-54.27349
2022-09-11 12:04:00+00:00,32.0,17.05,36.0,20.99,12.33,47.59359,-54.27349
2022-09-11 12:14:01+00:00,33.0,15.78,35.0,18.13,13.44,47.59359,-54.27349
2022-09-11 12:24:01+00:00,35.0,18.32,39.0,24.6,13.44,47.59359,-54.27349
2022-09-11 12:34:01+00:00,36.0,16.33,35.0,19.3,13.44,47.59359,-54.27349
2022-09-11 12:44:01+00:00,37.0,16.87,45.0,22.47,13.44,47.59359,-54.27349
2022-09-11 12:54:01+00:00,36.0,16.22,38.0,18.55,13.44,47.59359,-54.27349
2022-09-11 13:04:01+00:00,35.0,15.97,34.0,18.99,13.44,47.59359,-54.27349
2022-09-11 13:14:01+00:00,37.0,15.56,37.0,18.94,13.68,47.59359,-54.27349
2022-09-11 13:24:01+00:00,34.0,15.85,40.0,18.28,13.68,47.59359,-54.27349
2022-09-11 13:34:01+00:00,33.0,15.53,30.0,17.85,13.68,47.59359,-54.27349
2022-09-11 13:44:01+00:00,35.0,15.75,29.0,18.11,13.68,47.59359,-54.27349
2022-09-11 13:54:01+00:00,35.0,15.82,49.0,19.42,13.68,47.59359,-54.27349
2022-09-11 14:04:01+00:00,35.0,15.66,43.0,17.75,13.68,47.59359,-54.27349
2022-09-11 14:14:00+00:00,36.0,15.77,39.0,18.58,13.6,47.59359,-54.27349
2022-09-11 14:24:00+00:00,35.0,16.27,35.0,19.08,13.6,47.59359,-54.27349
2022-09-11 14:34:00+00:00,36.0,15.96,33.0,17.95,13.6,47.59359,-54.27349
2022-09-11 14:44:00+00:00,35.0,15.29,41.0,17.42,13.6,47.59359,-54.27349
2022-09-11 14:54:00+00:00,34.0,15.52,33.0,17.57,13.6,47.59359,-54.27349
2022-09-11 15:04:00+00:00,35.0,15.3,35.0,18.15,13.6,47.59359,-54.27349
2022-09-11 15:14:01+00:00,33.0,15.9,34.0,18.37,13.68,47.59359,-54.27349
2022-09-11 15:24:01+00:00,33.0,15.27,38.0,18.27,13.68,47.59359,-54.27349
2022-09-11 15:34:01+00:00,33.0,15.47,33.0,17.66,13.68,47.59359,-54.27349
2022-09-11 15:44:01+00:00,33.0,15.25,31.0,17.12,13.68,47.59359,-54.27349
2022-09-11 15:54:01+00:00,32.0,17.07,34.0,19.92,13.68,47.59359,-54.27349
2022-09-11 16:04:01+00:00,32.0,15.75,29.0,18.91,13.68,47.59359,-54.27349
2022-09-11 16:14:01+00:00,32.0,16.35,33.0,19.18,13.6,47.59359,-54.27349
2022-09-11 16:24:01+00:00,33.0,15.53,30.0,18.05,13.6,47.59359,-54.27349
2022-09-11 16:34:01+00:00,32.0,16.03,36.0,18.45,13.6,47.59359,-54.27349
2022-09-11 16:44:01+00:00,33.0,15.13,32.0,17.6,13.6,47.59359,-54.27349
2022-09-11 16:54:01+00:00,35.0,15.34,33.0,16.87,13.6,47.59359,-54.27349
2022-09-11 17:04:01+00:00,34.0,15.81,32.0,18.03,13.6,47.59359,-54.27349
2022-09-11 17:14:00+00:00,34.0,15.44,31.0,17.0,13.84,47.59359,-54.27349
2022-09-11 17:24:00+00:00,33.0,15.64,33.0,18.1,13.84,47.59359,-54.27349
2022-09-11 17:34:00+00:00,32.0,15.13,31.0,16.79,13.84,47.59359,-54.27349
2022-09-11 17:44:00+00:00,32.0,15.3,37.0,17.38,13.84,47.59359,-54.27349
2022-09-11 17:54:00+00:00,30.0,15.83,30.0,17.75,13.84,47.59359,-54.27349
2022-09-11 18:04:00+00:00,30.0,15.2,30.0,18.34,13.84,47.59359,-54.27349
2022-09-11 18:14:01+00:00,31.0,14.9,31.0,17.22,13.68,47.59359,-54.27349
2022-09-11 18:24:01+00:00,31.0,15.53,29.0,18.12,13.68,47.59359,-54.27349
2022-09-11 18:34:01+00:00,29.0,16.22,30.0,17.43,13.68,47.59359,-54.27349
2022-09-11 18:44:01+00:00,32.0,15.26,29.0,16.91,13.68,47.59359,-54.27349
2022-09-11 18:54:01+00:00,28.0,17.43,24.0,20.79,13.68,47.59359,-54.27349
2022-09-11 19:04:01+00:00,30.0,16.38,25.0,19.01,13.68,47.59359,-54.27349
2022-09-11 19:14:01+00:00,28.0,17.38,29.0,19.51,13.76,47.59359,-54.27349
2022-09-11 19:24:01+00:00,27.0,18.9,24.0,22.15,13.76,47.59359,-54.27349
2022-09-11 19:34:01+00:00,29.0,16.74,30.0,18.75,13.76,47.59359,-54.27349
2022-09-11 19:44:01+00:00,29.0,17.67,37.0,21.56,13.76,47.59359,-54.27349
2022-09-11 19:54:01+00:00,30.0,16.27,31.0,18.09,13.76,47.59359,-54.27349
2022-09-11 20:04:01+00:00,29.0,16.97,25.0,19.64,13.76,47.59359,-54.27349
2022-09-11 20:14:01+00:00,30.0,16.32,30.0,18.55,13.6,47.59359,-54.27349
2022-09-11 20:24:01+00:00,29.0,16.39,26.0,18.95,13.6,47.59359,-54.27349
2022-09-11 20:34:01+00:00,29.0,16.08,29.0,18.23,13.6,47.59359,-54.27349
2022-09-11 20:44:01+00:00,31.0,15.86,31.0,17.69,13.6,47.59359,-54.27349
2022-09-11 20:54:01+00:00,30.0,16.18,24.0,18.88,13.6,47.59359,-54.27349
2022-09-11 21:04:01+00:00,28.0,17.2,24.0,19.85,13.6,47.59359,-54.27349
2022-09-11 21:14:01+00:00,30.0,16.28,26.0,18.55,13.37,47.59359,-54.27349
2022-09-11 21:24:01+00:00,30.0,16.28,30.0,18.48,13.37,47.59359,-54.27349
2022-09-11 21:34:01+00:00,29.0,16.43,28.0,19.08,13.37,47.59359,-54.27349
2022-09-11 21:44:01+00:00,30.0,16.96,29.0,20.18,13.37,47.59359,-54.27349
2022-09-11 21:54:01+00:00,30.0,15.77,27.0,17.92,13.37,47.59359,-54.27349
2022-09-11 22:04:01+00:00,29.0,16.3,28.0,18.82,13.37,47.59359,-54.27349
2022-09-11 22:14:01+00:00,30.0,15.56,30.0,17.7,12.81,47.59359,-54.27349
2022-09-11 22:24:01+00:00,30.0,15.37,30.0,17.22,12.81,47.59359,-54.27349
2022-09-11 22:34:01+00:00,30.0,14.77,31.0,16.69,12.81,47.59359,-54.27349
2022-09-11 22:44:01+00:00,32.0,14.96,31.0,17.68,12.81,47.59359,-54.27349
2022-09-11 22:54:01+00:00,34.0,14.6,23.0,18.36,12.81,47.59359,-54.27349
2022-09-11 23:04:01+00:00,25.0,16.48,29.0,19.21,12.81,47.59359,-54.27349
2022-09-11 23:14:01+00:00,30.0,15.24,24.0,18.58,12.49,47.59359,-54.27349
2022-09-11 23:24:01+00:00,30.0,15.22,29.0,17.71,12.49,47.59359,-54.27349
2022-09-11 23:34:01+00:00,30.0,14.44,32.0,16.62,12.49,47.59359,-54.27349
2022-09-11 23:44:01+00:00,29.0,14.03,34.0,16.55,12.49,47.59359,-54.27349
2022-09-11 23:54:01+00:00,26.0,13.34,35.0,15.71,12.49,47.59359,-54.27349
